Time,TemperatureF,DewpointF,PressureIn,WindDirection,WindDirectionDegrees,WindSpeedMPH,WindSpeedGustMPH,Humidity,HourlyPrecipIn,Conditions,Clouds,dailyrainin,SoftwareType,DateUTC
2013-01-01 00:11:00,11.3,6.0,30.34,NNW,333,2.0,-999.0,79,-99.99,,,0.00,weatherlink.com 1.10,2013-01-01 06:11:00,
2013-01-01 00:26:00,10.8,5.0,30.34,NW,315,2.0,-999.0,78,-99.99,,,0.00,weatherlink.com 1.10,2013-01-01 06:26:00,
2013-01-01 00:41:00,10.3,5.0,30.34,NW,325,0.0,-999.0,78,-99.99,,,0.00,weatherlink.com 1.10,2013-01-01 06:41:00,
2013-01-01 00:56:00,9.8,5.0,30.33,NNW,328,1.0,-999.0,79,-99.99,,,0.00,weatherlink.com 1.10,2013-01-01 06:56:00,
2013-01-01 01:11:00,9.2,4.0,30.33,NW,309,1.0,-999.0,80,-99.99,,,0.00,weatherlink.com 1.10,2013-01-01 07:11:00,
2013-01-01 01:26:00,8.6,4.0,30.34,NW,318,0.0,-999.0,80,-99.99,,,0.00,weatherlink.com 1.10,2013-01-01 07:26:00,
2013-01-01 01:41:00,8.1,3.0,30.34,NW,318,1.0,-999.0,80,-99.99,,,0.00,weatherlink.com 1.10,2013-01-01 07:41:00,
2013-01-01 01:56:00,7.5,3.0,30.35,NW,320,0.0,-999.0,81,-99.99,,,0.00,weatherlink.com 1.10,2013-01-01 07:56:00,
2013-01-01 02:11:00,7.2,3.0,30.35,West,280,1.0,-999.0,81,-99.99,,,0.00,weatherlink.com 1.10,2013-01-01 08:11:00,
2013-01-01 02:27:00,7.1,2.0,30.36,NW,307,1.0,-999.0,81,-99.99,,,0.00,weatherlink.com 1.10,2013-01-01 08:27:00,
2013-01-01 02:41:00,6.8,2.0,30.38,NW,305,2.0,-999.0,81,-99.99,,,0.00,weatherlink.com 1.10,2013-01-01 08:41:00,
2013-01-01 02:57:00,6.3,2.0,30.38,WNW,298,3.0,-999.0,81,-99.99,,,0.00,weatherlink.com 1.10,2013-01-01 08:57:00,
2013-01-01 03:12:00,5.7,1.0,30.38,WNW,300,2.0,-999.0,81,-99.99,,,0.00,weatherlink.com 1.10,2013-01-01 09:12:00,
2013-01-01 03:27:00,5.2,1.0,30.38,NW,326,3.0,-999.0,81,-99.99,,,0.00,weatherlink.com 1.10,2013-01-01 09:27:00,
2013-01-01 03:42:00,4.8,0.0,30.38,NW,325,0.0,-999.0,81,-99.99,,,0.00,weatherlink.com 1.10,2013-01-01 09:42:00,
2013-01-01 03:57:00,4.4,0.0,30.38,NW,316,4.0,-999.0,81,-99.99,,,0.00,weatherlink.com 1.10,2013-01-01 09:57:00,
2013-01-01 04:12:00,4.0,-1.0,30.38,NW,314,3.0,-999.0,81,-99.99,,,0.00,weatherlink.com 1.10,2013-01-01 10:12:00,
2013-01-01 04:27:00,3.6,-1.0,30.39,NW,306,2.0,-999.0,81,-99.99,,,0.00,weatherlink.com 1.10,2013-01-01 10:27:00,
2013-01-01 04:42:00,3.3,-1.0,30.39,WNW,294,3.0,-999.0,81,-99.99,,,0.00,weatherlink.com 1.10,2013-01-01 10:42:00,
2013-01-01 04:58:00,3.0,-2.0,30.40,WNW,294,1.0,-999.0,81,-99.99,,,0.00,weatherlink.com 1.10,2013-01-01 10:58:00,
2013-01-01 05:13:00,2.7,-2.0,30.39,WNW,294,1.0,-999.0,81,-99.99,,,0.00,weatherlink.com 1.10,2013-01-01 11:13:00,
2013-01-01 05:28:00,2.5,-2.0,30.39,WNW,302,1.0,-999.0,81,-99.99,,,0.00,weatherlink.com 1.10,2013-01-01 11:28:00,
2013-01-01 05:43:00,2.2,-2.0,30.39,NW,306,1.0,-999.0,81,-99.99,,,0.00,weatherlink.com 1.10,2013-01-01 11:43:00,
2013-01-01 05:58:00,2.0,-3.0,30.39,WNW,292,3.0,-999.0,81,-99.99,,,0.00,weatherlink.com 1.10,2013-01-01 11:58:00,
2013-01-01 06:13:00,1.7,-3.0,30.38,NW,314,3.0,-999.0,81,-99.99,,,0.00,weatherlink.com 1.10,2013-01-01 12:13:00,
2013-01-01 06:28:00,1.4,-3.0,30.39,NNW,328,1.0,-999.0,81,-99.99,,,0.00,weatherlink.com 1.10,2013-01-01 12:28:00,
2013-01-01 06:43:00,1.2,-3.0,30.39,NW,306,2.0,-999.0,82,-99.99,,,0.00,weatherlink.com 1.10,2013-01-01 12:43:00,
2013-01-01 06:58:00,1.0,-3.0,30.38,NW,311,1.0,-999.0,82,-99.99,,,0.00,weatherlink.com 1.10,2013-01-01 12:58:00,
2013-01-01 07:13:00,0.8,-4.0,30.38,NNW,329,2.0,-999.0,82,-99.99,,,0.00,weatherlink.com 1.10,2013-01-01 13:13:00,
2013-01-01 07:28:00,0.7,-4.0,30.38,NNW,329,4.0,-999.0,82,-99.99,,,0.00,weatherlink.com 1.10,2013-01-01 13:28:00,
2013-01-01 07:43:00,0.6,-4.0,30.39,NW,324,2.0,-999.0,82,-99.99,,,0.00,weatherlink.com 1.10,2013-01-01 13:43:00,
2013-01-01 07:58:00,0.4,-4.0,30.40,NW,307,2.0,-999.0,82,-99.99,,,0.00,weatherlink.com 1.10,2013-01-01 13:58:00,
2013-01-01 08:14:00,0.8,-4.0,30.40,NW,313,2.0,-999.0,81,-99.99,,,0.00,weatherlink.com 1.10,2013-01-01 14:14:00,
2013-01-01 08:29:00,1.1,-4.0,30.40,NW,312,2.0,-999.0,80,-99.99,,,0.00,weatherlink.com 1.10,2013-01-01 14:29:00,
2013-01-01 08:43:00,1.6,-3.0,30.41,NW,313,4.0,-999.0,80,-99.99,,,0.00,weatherlink.com 1.10,2013-01-01 14:43:00,
2013-01-01 08:59:00,2.3,-3.0,30.41,NW,304,2.0,-999.0,80,-99.99,,,0.00,weatherlink.com 1.10,2013-01-01 14:59:00,
2013-01-01 09:14:00,3.4,-2.0,30.41,WNW,294,2.0,-999.0,78,-99.99,,,0.00,weatherlink.com 1.10,2013-01-01 15:14:00,
2013-01-01 09:29:00,4.8,-1.0,30.42,North,349,0.0,-999.0,77,-99.99,,,0.00,weatherlink.com 1.10,2013-01-01 15:29:00,
2013-01-01 09:44:00,6.0,0.0,30.43,WNW,286,0.0,-999.0,76,-99.99,,,0.00,weatherlink.com 1.10,2013-01-01 15:44:00,
2013-01-01 09:59:00,6.4,-1.0,30.43,NW,323,4.0,-999.0,72,-99.99,,,0.00,weatherlink.com 1.10,2013-01-01 15:59:00,
2013-01-01 10:14:00,7.1,0.0,30.44,WNW,290,0.0,-999.0,72,-99.99,,,0.00,weatherlink.com 1.10,2013-01-01 16:14:00,
2013-01-01 10:29:00,8.3,1.0,30.45,WNW,290,0.0,-999.0,71,-99.99,,,0.00,weatherlink.com 1.10,2013-01-01 16:29:00,
2013-01-01 10:44:00,9.8,1.0,30.45,WNW,290,1.0,-999.0,67,-99.99,,,0.00,weatherlink.com 1.10,2013-01-01 16:44:00,
2013-01-01 10:59:00,10.0,2.0,30.45,WNW,290,3.0,-999.0,69,-99.99,,,0.00,weatherlink.com 1.10,2013-01-01 16:59:00,
2013-01-01 11:15:00,10.6,2.0,30.45,WSW,248,2.0,-999.0,68,-99.99,,,0.00,weatherlink.com 1.10,2013-01-01 17:15:00,
2013-01-01 11:30:00,9.8,2.0,30.45,SW,228,4.0,-999.0,71,-99.99,,,0.00,weatherlink.com 1.10,2013-01-01 17:30:00,
2013-01-01 11:45:00,10.6,3.0,30.44,SSW,212,2.0,-999.0,71,-99.99,,,0.00,weatherlink.com 1.10,2013-01-01 17:45:00,
2013-01-01 12:00:00,11.6,3.0,30.43,SW,236,2.0,-999.0,69,-99.99,,,0.00,weatherlink.com 1.10,2013-01-01 18:00:00,
2013-01-01 12:15:00,12.0,4.0,30.42,SSW,212,3.0,-999.0,69,-99.99,,,0.00,weatherlink.com 1.10,2013-01-01 18:15:00,
2013-01-01 12:30:00,13.1,4.0,30.41,SSW,209,2.0,-999.0,68,-99.99,,,0.00,weatherlink.com 1.10,2013-01-01 18:30:00,
2013-01-01 12:45:00,14.0,5.0,30.40,SSW,209,2.0,-999.0,67,-99.99,,,0.00,weatherlink.com 1.10,2013-01-01 18:45:00,
2013-01-01 13:00:00,14.3,4.0,30.39,WNW,299,3.0,-999.0,64,-99.99,,,0.00,weatherlink.com 1.10,2013-01-01 19:00:00,
2013-01-01 13:15:00,14.8,5.0,30.39,WNW,292,3.0,-999.0,64,-99.99,,,0.00,weatherlink.com 1.10,2013-01-01 19:15:00,
2013-01-01 13:36:00,15.7,5.0,30.39,WSW,251,0.0,-999.0,63,-99.99,,,0.00,weatherlink.com 1.10,2013-01-01 19:36:00,
2013-01-01 13:45:00,16.3,6.0,30.39,WNW,302,3.0,-999.0,63,-99.99,,,0.00,weatherlink.com 1.10,2013-01-01 19:45:00,
2013-01-01 14:01:00,16.7,6.0,30.39,SSW,200,0.0,-999.0,63,-99.99,,,0.00,weatherlink.com 1.10,2013-01-01 20:01:00,
2013-01-01 14:16:00,17.0,7.0,30.39,SSW,194,0.0,-999.0,65,-99.99,,,0.00,weatherlink.com 1.10,2013-01-01 20:16:00,
2013-01-01 14:39:00,16.8,5.0,30.39,SSW,211,2.0,-999.0,61,-99.99,,,0.00,weatherlink.com 1.10,2013-01-01 20:39:00,
2013-01-01 14:45:00,16.8,6.0,30.39,West,263,3.0,-999.0,62,-99.99,,,0.00,weatherlink.com 1.10,2013-01-01 20:45:00,
2013-01-01 15:01:00,16.7,5.0,30.39,WNW,296,0.0,-999.0,61,-99.99,,,0.00,weatherlink.com 1.10,2013-01-01 21:01:00,
2013-01-01 15:16:00,17.1,6.0,30.38,WNW,288,1.0,-999.0,62,-99.99,,,0.00,weatherlink.com 1.10,2013-01-01 21:16:00,
2013-01-01 15:39:00,17.1,6.0,30.38,WNW,288,3.0,-999.0,63,-99.99,,,0.00,weatherlink.com 1.10,2013-01-01 21:39:00,
2013-01-01 15:46:00,17.0,6.0,30.38,WNW,288,2.0,-999.0,63,-99.99,,,0.00,weatherlink.com 1.10,2013-01-01 21:46:00,
2013-01-01 16:01:00,17.5,6.0,30.37,WSW,248,2.0,-999.0,62,-99.99,,,0.00,weatherlink.com 1.10,2013-01-01 22:01:00,
2013-01-01 16:16:00,17.2,6.0,30.37,SW,223,0.0,-999.0,62,-99.99,,,0.00,weatherlink.com 1.10,2013-01-01 22:16:00,
2013-01-01 16:34:00,16.8,6.0,30.37,WNW,300,0.0,-999.0,63,-99.99,,,0.00,weatherlink.com 1.10,2013-01-01 22:34:00,
2013-01-01 16:46:00,15.9,6.0,30.37,WNW,300,0.0,-999.0,66,-99.99,,,0.00,weatherlink.com 1.10,2013-01-01 22:46:00,
2013-01-01 17:01:00,15.1,6.0,30.37,WNW,300,0.0,-999.0,68,-99.99,,,0.00,weatherlink.com 1.10,2013-01-01 23:01:00,
2013-01-01 17:16:00,14.5,6.0,30.37,WNW,300,0.0,-999.0,69,-99.99,,,0.00,weatherlink.com 1.10,2013-01-01 23:16:00,
2013-01-01 17:39:00,14.4,6.0,30.37,WNW,300,0.0,-999.0,70,-99.99,,,0.00,weatherlink.com 1.10,2013-01-01 23:39:00,
2013-01-01 17:46:00,14.3,6.0,30.37,WNW,300,0.0,-999.0,70,-99.99,,,0.00,weatherlink.com 1.10,2013-01-01 23:46:00,
2013-01-01 18:02:00,13.9,8.0,30.36,WNW,300,0.0,-999.0,76,-99.99,,,0.00,weatherlink.com 1.10,2013-01-02 00:02:00,
2013-01-01 18:17:00,12.7,5.0,30.36,WNW,300,0.0,-999.0,72,-99.99,,,0.00,weatherlink.com 1.10,2013-01-02 00:17:00,
2013-01-01 18:39:00,12.5,5.0,30.35,WNW,300,0.0,-999.0,73,-99.99,,,0.00,weatherlink.com 1.10,2013-01-02 00:39:00,
2013-01-01 18:46:00,13.1,6.0,30.35,WNW,300,0.0,-999.0,72,-99.99,,,0.00,weatherlink.com 1.10,2013-01-02 00:46:00,
2013-01-01 19:02:00,13.2,6.0,30.35,WNW,300,0.0,-999.0,72,-99.99,,,0.00,weatherlink.com 1.10,2013-01-02 01:02:00,
2013-01-01 19:17:00,13.2,5.0,30.35,WNW,300,0.0,-999.0,70,-99.99,,,0.00,weatherlink.com 1.10,2013-01-02 01:17:00,
2013-01-01 19:39:00,13.0,5.0,30.34,WNW,300,0.0,-999.0,70,-99.99,,,0.00,weatherlink.com 1.10,2013-01-02 01:39:00,
2013-01-01 19:47:00,12.2,5.0,30.34,WNW,300,1.0,-999.0,73,-99.99,,,0.00,weatherlink.com 1.10,2013-01-02 01:47:00,
2013-01-01 20:02:00,12.4,6.0,30.33,WNW,300,0.0,-999.0,76,-99.99,,,0.00,weatherlink.com 1.10,2013-01-02 02:02:00,
2013-01-01 20:17:00,11.4,5.0,30.34,WNW,300,0.0,-999.0,75,-99.99,,,0.00,weatherlink.com 1.10,2013-01-02 02:17:00,
2013-01-01 20:39:00,10.2,4.0,30.33,WNW,300,0.0,-999.0,77,-99.99,,,0.00,weatherlink.com 1.10,2013-01-02 02:39:00,
2013-01-01 20:47:00,10.4,5.0,30.33,WNW,300,0.0,-999.0,78,-99.99,,,0.00,weatherlink.com 1.10,2013-01-02 02:47:00,
2013-01-01 21:02:00,10.7,5.0,30.33,WNW,300,0.0,-999.0,76,-99.99,,,0.00,weatherlink.com 1.10,2013-01-02 03:02:00,
2013-01-01 21:18:00,10.6,4.0,30.34,WNW,300,0.0,-999.0,76,-99.99,,,0.00,weatherlink.com 1.10,2013-01-02 03:18:00,
2013-01-01 21:39:00,10.7,5.0,30.33,WNW,300,0.0,-999.0,76,-99.99,,,0.00,weatherlink.com 1.10,2013-01-02 03:39:00,
2013-01-01 21:47:00,10.8,5.0,30.33,WNW,300,0.0,-999.0,77,-99.99,,,0.00,weatherlink.com 1.10,2013-01-02 03:47:00,
2013-01-01 22:03:00,10.7,5.0,30.32,WNW,300,0.0,-999.0,76,-99.99,,,0.00,weatherlink.com 1.10,2013-01-02 04:03:00,
2013-01-01 22:18:00,10.9,4.0,30.32,WNW,300,0.0,-999.0,75,-99.99,,,0.00,weatherlink.com 1.10,2013-01-02 04:18:00,
2013-01-01 22:39:00,10.6,4.0,30.32,West,279,0.0,-999.0,75,-99.99,,,0.00,weatherlink.com 1.10,2013-01-02 04:39:00,
2013-01-01 22:48:00,11.0,5.0,30.32,West,279,2.0,-999.0,76,-99.99,,,0.00,weatherlink.com 1.10,2013-01-02 04:48:00,
2013-01-01 23:03:00,10.9,5.0,30.32,SSE,159,0.0,-999.0,76,-99.99,,,0.00,weatherlink.com 1.10,2013-01-02 05:03:00,
2013-01-01 23:18:00,10.5,5.0,30.31,SE,133,2.0,-999.0,77,-99.99,,,0.00,weatherlink.com 1.10,2013-01-02 05:18:00,
2013-01-01 23:39:00,10.5,5.0,30.31,East,95,4.0,-999.0,78,-99.99,,,0.00,weatherlink.com 1.10,2013-01-02 05:39:00,
2013-01-01 23:48:00,10.5,5.0,30.31,ESE,112,0.0,-999.0,79,-99.99,,,0.00,weatherlink.com 1.10,2013-01-02 05:48:00,